www.pogodaiklimat.ru
Время
(UTC), дата
03 27.05
06 27.05
09 27.05
12 27.05
15 27.05
18 27.05
21 27.05
00 28.05
03 28.05
06 28.05
09 28.05
12 28.05
15 28.05
18 28.05
21 28.05
00 29.05
03 29.05
06 29.05
09 29.05
12 29.05
15 29.05
18 29.05
21 29.05
00 30.05
03 30.05
06 30.05
09 30.05
12 30.05
15 30.05
18 30.05
21 30.05
00 31.05
03 31.05
06 31.05
09 31.05
12 31.05
15 31.05
18 31.05
21 31.05
00 1.06
03 1.06
06 1.06
09 1.06
12 1.06
15 1.06
18 1.06
21 1.06
00 2.06
03 2.06
06 2.06
09 2.06
12 2.06
15 2.06
18 2.06
21 2.06
Ветер
(напр.,м/с)
Видим. Явления Облачность Т
(С)
Тd
(С)
f
(%)
Тe
(С)
Тes
(С)
Комфортность P
(гПа)
Po
(гПа)
Тmin
(С)
Tmax
(С)
R
(мм)
R24
(мм)
S
(см)
В 1 50 км 10/0
[Cs]
+19.1 +7.0 45 +21 +35 комфорт 998.4 913.4
ЮЗ 6-10
{13}
50 км 10/3 1000 м
[Cu hum Ac lent Ci fib]
+27.2 +2.8 21 +26 +28 жарко 991.9 909.6
СЗ 3
{11}
50 км 9/6 1000 м
[Cu med, cong Ci fib]
+27.2 +2.5 20 +26 +27 жарко 990.1 907.9
С 4 50 км гроза без осадков 10/8 1000 м
[Cb calv Ac As]
+23.5 +4.5 29 +23 +23 комфорт 993.0 909.6 +28.3
СЗ 5
{15}
10 км слаб. ливневой дождь {гроза} 10/8 1000 м
[Cb calv Ac As]
+14.5 +10.5 77 +13 +13 1000.0 913.7
СЗ 2
{10}
10 км слаб. ливневой дождь {гроза} 10/8 1000 м
[Cb cap Ac As]
+8.6 +5.8 83 +7 +7 1005.8 917.2
СВ 1 50 км {ливн. осадки} 10/8 1000 м
[Cb cap Ac As]
+6.6 +2.8 77 +6 +6 1008.7 919.1
СЗ 2 50 км {ливн. осадки} 10/8 1000 м
[Cb cap Ac As]
+7.4 +2.9 73 +5 +6 1009.7 920.3 +6.4 2
СЗ 2 50 км 10/8 1000 м
[Cb cap Ac As]
+8.0 +2.0 66 +6 +7 1010.3 921.0
СЗ 3 50 км 10/8 1000 м
[Cb cap Ac As]
+10.4 +0.5 50 +9 +10 1009.1 920.6
С 4 50 км 10/3 1000 м
[Cb cap Ac As]
+9.2 +0.9 56 +7 +8 1009.2 920.3
ЮЗ 3 10 км слаб. дождь 10/8 1000 м
[Sc diur, vesp Ac As]
+6.3 +4.2 86 +3 +3 1012.0 922.1 +10.7 0.7
Ю 1 50 км {дождь} 10/6 1000 м
[Cb cap Ac As]
+5.0 +2.9 86 +4 +4 1014.1 923.5
З 2 50 км {дождь} 10/6 1000 м
[Cb cap Ac As]
+4.7 +2.7 87 +2 +2 1013.2 922.6
З 1 50 км ясно +4.0 +3.2 95 +2 +2 1013.1 922.3
Ю 2 50 км 10/6 1000 м
[Cb cap Ac As]
+5.6 +2.8 82 +3 +4 1012.5 922.3 +3.9 2
ЮВ 1 10 км слаб. ливневой дождь 10/8 1000 м
[Cb cap Ac lent Ci fib]
+7.1 +3.3 77 +6 +8 1012.1 922.4
ЮВ 1 10 км слаб. ливневой дождь 10/8 1000 м
[Cb cap Ac lent Ci fib]
+7.9 +3.6 74 +7 +9 1010.5 921.2
СЗ 2 10 км в посл. час ливневой дождь 10/8 1000 м
[Cb cap Ac lent Ci fib]
+7.6 +3.8 77 +6 +6 1010.8 921.3
С 1 10 км слаб. дождь 10/8 1000 м
[Sc diur, vesp Ac As]
+5.9 +3.5 85 +5 +5 1012.6 922.5 +8.9 2
Ю 1 50 км {дождь} 10/6 1000 м
[Cb cap Ac As]
+4.9 +3.5 91 +4 +4 1013.3 922.8
СЗ 1 50 км 9/4 1000 м
[Cb cap Ac lent]
+4.2 +2.9 91 +3 +3 1013.3 922.6
ЮЗ 3 50 км 10/4 1000 м
[Cb cap Ac As]
+3.8 +2.6 92 -0 -0 1013.0 922.2
З 3 50 км 10/6 1000 м
[Cb cap Ac lent Ci fib]
+6.9 +2.5 74 +4 +5 1012.0 922.2 +3.6 0.3
С 3
{13}
10 км слаб. ливневой дождь 10/8 1000 м
[Cb calv Ac As]
+6.9 +2.4 73 +4 +5 1011.6 921.9
С 4
{11}
50 км {ливн. осадки} 9/8 1000 м
[Cb cap Ac As]
+9.8 +2.2 59 +7 +9 1009.4 920.7
СЗ 5-10
{12}
50 км 8/5 1000 м
[Cb cap Ac lent Ci fib]
+11.8 -0.1 44 +10 +11 1008.5 920.5
ЮЗ 1
{10}
50 км 8/5 1000 м
[Cb cap Ac lent Ci fib]
+8.9 +3.3 68 +9 +9 1009.5 920.6 +12.6 0.6
СВ 1 50 км 3/0
[Ac lent Ci fib]
+4.2 +1.5 83 +3 +3 1012.0 921.4
СВ 1 50 км ясно -0.7 -1.1 97 -3 -3 1013.9 921.6
штиль 0 500 м туман ?/? -1.1 -1.3 99 -3 -3 1014.3 921.7
штиль 0 500 м туман ?/? +1.3 +1.1 99 -0 -0 1013.5 921.8 -2.3
Ю 1 50 км {туман} 6/3 1000 м
[Cu med, cong Ci fib]
+12.2 +3.8 56 +12 +24 опасность
простуды
1007.8 920.0
Ю 2 50 км {туман} 8/4 1000 м
[Cb cap Ac lent Ci]
+17.8 -1.9 26 +18 +25 1003.0 917.1
Ю 2 50 км 4/3 1000 м
[Cu hum Ci fib]
+19.0 -3.2 22 +20 +24 1001.3 915.8
С 1 50 км 6/3 1000 м
[Sc diur, vesp Ac lent Ci fib]
+16.7 -0.1 32 +18 +18 1001.9 915.8 +19.5
СВ 1 50 км 3/0
[Ci fib]
+6.8 +2.8 76 +6 +6 1006.1 916.8
штиль 0 50 км 3/0
[Ci fib]
+2.1 +1.0 92 +1 +1 1007.9 917.0
ЮВ 1 50 км 6/0
[Ac lent Ci fib]
0.0 -0.5 96 -2 -2 1008.7 917.0
СЗ 1 50 км 10/4 1000 м
[Cb cap Ac lent Ci fib]
+5.4 +2.1 79 +4 +6 1006.8 917.0 -0.8
Ю 2 50 км 10/6 1000 м
[Cb cap Ac lent Ci fib]
+11.7 +3.6 58 +11 +14 1003.5 915.9
ЮЗ 1 50 км 10/8 1000 м
[Cb cap Ac lent Ci fib]
+16.6 +5.2 47 +18 +19 999.8 914.0
С 3
{10}
10 км гроза, ливневой дождь 10/8 1000 м
[Cb cap Ac lent Ci fib]
+12.1 +8.0 76 +11 +11 1001.0 913.9
ЮВ 1 50 км {гроза} 10/6 1000 м
[Cb cap Ac lent Ci fib]
+11.2 +8.4 83 +11 +11 1000.8 913.4 +18.2 1
СВ 1 10 км слаб. ливневой дождь 10/8 1000 м
[Cb cap Ac As]
+9.4 +8.5 94 +9 +9 998.8 911.0
ЮВ 1 4000 м ливневой дождь 10/9 1000 м
[Cb cap Ac As]
+8.8 +8.3 97 +8 +8 997.3 909.5
З 2 10 км слаб. ливневой дождь 10/8 1000 м
[Cb cap Ac As]
+5.9 +3.9 87 +3 +3 1001.4 912.3
З 4
{10}
10 км осадки на расстоянии {ливн. осадки} 10/8 1000 м
[Cb cap Ac As]
+7.0 +3.2 77 +4 +4 1003.3 914.3 +5.8 12
З 6-11
{11}
10 км в посл. час ливневой дождь 9/8 1000 м
[Cb cap Ac lent Ci fib]
+8.6 +5.1 79 +5 +6 1003.5 915.0
СЗ 6-11
{15}
50 км {ливн. осадки} 9/6 1000 м
[Cb cap Ac lent Ci fib]
+10.5 +4.4 66 +7 +9 1003.7 915.8
СЗ 5-10
{14}
50 км 9/8 1000 м
[Cb cap Ac lent Ci fib]
+10.0 +4.7 70 +7 +8 1005.4 917.1
З 2
{10}
50 км 9/8 1000 м
[Cb cap Ac lent Ci fib]
+9.6 +3.7 67 +8 +8 1006.8 918.3 +11.4 0.9
Ю 1 50 км 8/5 1000 м
[Sc diur, vesp Ac lent]
+7.6 +3.3 74 +7 +7 1007.1 917.9
З 2 50 км 10/8 1000 м
[Cb cap Ac As]
+7.4 +3.4 76 +5 +5 1007.7 918.5
З 2 50 км 6/4 1000 м
[Sc diur, vesp Ac lent]
+3.9 +2.2 89 +1 +1 1008.8 918.4
Местоположение метеостанции Красный Чикой (Забайкальский край, Россия): широта 50.37 долгота 108.70 высота над уровнем моря 771 м.
В архиве по умолчанию представлена погода в Красном Чикое за последнюю неделю. Архивные данные за месяц целиком и за предыдущие месяцы, начиная с января 2011 года, Вы можете получить, выбрав интересующий диапазон дат из раскрывающегося списка и нажав кнопку "Найти!".
*Определитесь, кто Вы:
Внимание! Время в таблицах - всемирное. Для получения местного времени необходимо прибавить поправку, которая равна 9 ч.
Смотрите также архив погоды в соседних городах и на ближайших метеорологических станциях:
Партнеры нашего сайта:      
Пояснения к столбцам:
  • Ветер - указаны скорость ветра в м/с - средняя за 10 мин, порывы в срок и между сроками (в фигурных скобках) и направление, откуда дует ветер: С - северный,
  • СВ - северо-восточный, В - восточный, ЮВ - юго-восточный, Ю - южный, ЮЗ - юго-западный, З - западный, СЗ - северо-западный.
  • Видимость - горизонтальная дальность видимости в метрах или километрах. При видимости от 1 до 10 км при отсутствии осадков обычно наблюдается дымка, при ухудшении видимости до 1 км и менее - туман. В сухую погоду видимость может ухудшаться дымом, пылью или мглою.
  • Явления - указаны атмосферные явления, наблюдавшиеся в срок или в последний час перед сроком; фигурными скобками обозначены явления, наблюдавшиеся между сроками (за 1-3 часа до срока); квадратными скобками обозначены град или гололедные отложения с указанием их диаметра в мм.
  • Облачность - указаны через наклонную черту общая и нижняя облачность в баллах и высота нижней границы облаков в метрах; квадратными скобками обозначены формы облаков: Ci - перистые, Cs - перисто-слоистые, Cc - перисто-кучевые, Ac - высококучевые, As - высокослоистые, Sc - слоисто-кучевые, Ns - слоисто-дождевые, Cu - кучевые, Cb - кучево-дождевые. Подробнее классификацию облаков см. в Атласе облаков (PDF).
  • T - Температура воздуха - температура, измеренная на высоте 2 м над землей.
  • Td - Температура точки росы - температура, при понижении до которой содержащийся в воздухе водяной пар достигнет насыщения.
  • f - Относительная влажность воздуха - влажноcть воздуха, измеренная на высоте 2 м над землей.
  • Te - Эффективная температура - температура, которую ощущает одетый по сезону человек в тени. Характеристика душности погоды. При расчете учитывается влияние влажности воздуха и скорости ветра на теплоощущения человека.
  • Tes - Эффективная температура на солнце - температура, которую ощущает человек, с поправкой на солнечный нагрев. Характеристика знойности погоды. Зависит от высоты солнца над горизонтом, облачности и скорости ветра. Ночью, в пасмурную погоду, а также при ветре 12 м/с и более поправка равна нулю.
  • P - Атмосферное давление - приведенное к уровню моря атмосферное давление.
  • Po - Атмосферное давление - измеренное на уровне метеостанции атмосферное давление.
  • Tmin - Минимальная температура - минимум температуры воздуха на высоте 2 м над землей.
  • Tmax - Максимальная температура - максимум температуры воздуха на высоте 2 м над землей.
  • R - Количество осадков - Количество выпавших осадков за период времени, мм. При наведении курсора мыши на число - период времени, за который выпало указанное количество осадков.
  • R24 - Количество осадков - Количество выпавших осадков за 24 часа, мм.
  • S - Снежный покров - Высота снежного покрова, см. При наведении курсора мыши на число - состояние снежного покрова и степень покрытия местности в баллах.